Time,TemperatureF,DewpointF,PressureIn,WindDirection,WindDirectionDegrees,WindSpeedMPH,WindSpeedGustMPH,Humidity,HourlyPrecipIn,Conditions,Clouds,dailyrainin,SoftwareType,DateUTC
2013-07-08 00:01:00,69.3,66.2,29.68,NE,39,0.0,0.0,90,0.00,,---,0.00,VWS V13.01,2013-07-08 04:01:00,
2013-07-08 00:02:00,69.3,66.2,29.68,NE,39,0.0,0.0,90,0.00,,---,0.00,VWS V13.01,2013-07-08 04:02:00,
2013-07-08 00:04:00,69.3,66.2,29.68,NE,39,0.0,0.0,90,0.00,,---,0.00,VWS V13.01,2013-07-08 04:04:00,
2013-07-08 00:09:00,69.3,66.2,29.68,NE,39,0.0,0.0,90,0.00,,---,0.00,VWS V13.01,2013-07-08 04:09:00,
2013-07-08 00:14:00,69.4,66.4,29.68,NE,39,0.0,0.0,90,0.00,,---,0.00,VWS V13.01,2013-07-08 04:14:00,
2013-07-08 00:20:00,69.4,66.4,29.68,NE,39,0.0,0.0,90,0.00,,---,0.00,VWS V13.01,2013-07-08 04:20:00,
2013-07-08 00:25:00,69.4,66.4,29.68,NE,39,0.0,0.0,90,0.00,,---,0.00,VWS V13.01,2013-07-08 04:25:00,
2013-07-08 00:31:00,69.6,66.6,29.68,NE,39,0.0,0.0,90,0.00,,---,0.00,VWS V13.01,2013-07-08 04:31:00,
2013-07-08 00:36:00,69.6,66.6,29.68,NE,39,0.0,0.0,90,0.00,,---,0.00,VWS V13.01,2013-07-08 04:36:00,
2013-07-08 00:42:00,69.4,66.4,29.68,SE,130,0.0,0.0,90,0.00,,---,0.00,VWS V13.01,2013-07-08 04:42:00,
2013-07-08 00:47:00,69.3,66.2,29.68,ESE,104,0.0,0.0,90,0.00,,---,0.00,VWS V13.01,2013-07-08 04:47:00,
2013-07-08 00:52:00,68.9,65.5,29.68,ESE,103,0.0,0.0,89,0.00,,---,0.00,VWS V13.01,2013-07-08 04:52:00,
2013-07-08 00:58:00,68.0,64.0,29.68,ESE,104,0.0,0.0,87,0.00,,---,0.00,VWS V13.01,2013-07-08 04:58:00,
2013-07-08 01:03:00,68.4,63.0,29.68,ESE,109,0.0,0.0,83,0.00,,---,0.00,VWS V13.01,2013-07-08 05:03:00,
2013-07-08 01:08:00,67.6,59.4,29.68,ESE,109,0.0,0.0,75,0.00,,---,0.00,VWS V13.01,2013-07-08 05:08:00,
2013-07-08 01:13:00,67.3,55.1,29.68,ESE,109,0.0,0.0,65,0.00,,---,0.00,VWS V13.01,2013-07-08 05:13:00,
2013-07-08 01:19:00,67.3,46.9,29.68,ESE,109,0.0,0.0,48,0.00,,---,0.00,VWS V13.01,2013-07-08 05:19:00,
2013-07-08 01:25:00,67.1,46.2,29.68,ESE,109,0.0,0.0,47,0.00,,---,0.00,VWS V13.01,2013-07-08 05:25:00,
2013-07-08 01:30:00,67.1,45.1,29.68,ESE,109,0.0,0.0,45,0.00,,---,0.00,VWS V13.01,2013-07-08 05:30:00,
2013-07-08 01:36:00,67.1,44.5,29.68,ESE,109,0.0,0.0,44,0.00,,---,0.00,VWS V13.01,2013-07-08 05:36:00,
2013-07-08 01:41:00,67.1,45.1,29.68,ESE,109,0.0,0.0,45,0.00,,---,0.00,VWS V13.01,2013-07-08 05:41:00,
2013-07-08 01:46:00,66.9,44.3,29.68,ESE,109,0.0,0.0,44,0.00,,---,0.00,VWS V13.01,2013-07-08 05:46:00,
2013-07-08 01:51:00,66.9,44.3,29.68,ESE,109,0.0,0.0,44,0.00,,---,0.00,VWS V13.01,2013-07-08 05:51:00,
2013-07-08 01:57:00,66.9,42.5,29.68,ESE,109,0.0,0.0,41,0.00,,---,0.00,VWS V13.01,2013-07-08 05:57:00,
2013-07-08 02:03:00,66.9,41.8,29.71,ESE,109,0.0,0.0,40,0.00,,---,0.00,VWS V13.01,2013-07-08 06:03:00,
2013-07-08 02:08:00,67.1,40.7,29.71,SE,126,0.0,0.0,38,0.00,,---,0.00,VWS V13.01,2013-07-08 06:08:00,
2013-07-08 02:14:00,67.1,39.3,29.71,SE,126,0.0,0.0,36,0.00,,---,0.00,VWS V13.01,2013-07-08 06:14:00,
2013-07-08 02:20:00,66.9,37.7,29.68,SE,130,0.0,0.0,34,0.00,,---,0.00,VWS V13.01,2013-07-08 06:20:00,
2013-07-08 02:25:00,67.3,38.0,29.68,SE,141,0.0,0.0,34,0.00,,---,0.00,VWS V13.01,2013-07-08 06:25:00,
2013-07-08 02:31:00,67.1,37.8,29.68,SE,141,0.0,0.0,34,0.00,,---,0.00,VWS V13.01,2013-07-08 06:31:00,
2013-07-08 02:36:00,66.9,36.9,29.68,SE,141,0.0,0.0,33,0.00,,---,0.00,VWS V13.01,2013-07-08 06:36:00,
2013-07-08 02:42:00,66.9,37.7,29.68,SSW,206,0.0,0.0,34,0.00,,---,0.00,VWS V13.01,2013-07-08 06:42:00,
2013-07-08 02:48:00,66.7,36.8,29.68,SSW,206,0.0,0.0,33,0.00,,---,0.00,VWS V13.01,2013-07-08 06:48:00,
2013-07-08 02:53:00,66.7,36.8,29.68,SSE,167,0.0,0.0,33,0.00,,---,0.00,VWS V13.01,2013-07-08 06:53:00,
2013-07-08 02:58:00,66.7,37.5,29.68,ESE,115,0.0,0.0,34,0.00,,---,0.00,VWS V13.01,2013-07-08 06:58:00,
2013-07-08 03:04:00,66.6,36.6,29.68,ESE,123,3.4,4.5,33,0.00,,---,0.00,VWS V13.01,2013-07-08 07:04:00,
2013-07-08 03:09:00,66.6,36.6,29.68,SSE,164,0.0,0.0,33,0.00,,---,0.00,VWS V13.01,2013-07-08 07:09:00,
2013-07-08 03:16:00,66.6,35.8,29.71,SE,143,0.0,0.0,32,0.00,,---,0.00,VWS V13.01,2013-07-08 07:16:00,
2013-07-08 03:21:00,66.6,36.6,29.71,SSE,157,0.0,0.0,33,0.00,,---,0.00,VWS V13.01,2013-07-08 07:21:00,
2013-07-08 03:26:00,66.4,35.7,29.71,SSE,161,0.0,0.0,32,0.00,,---,0.00,VWS V13.01,2013-07-08 07:26:00,
2013-07-08 03:31:00,66.2,33.9,29.71,East,87,4.0,5.4,30,0.00,,---,0.00,VWS V13.01,2013-07-08 07:31:00,
2013-07-08 03:36:00,66.2,35.5,29.71,SE,143,0.0,0.0,32,0.00,,---,0.00,VWS V13.01,2013-07-08 07:36:00,
2013-07-08 03:41:00,66.2,33.0,29.71,SE,143,0.0,0.0,29,0.00,,---,0.00,VWS V13.01,2013-07-08 07:41:00,
2013-07-08 03:46:00,66.2,33.0,29.71,SE,143,0.0,0.0,29,0.00,,---,0.00,VWS V13.01,2013-07-08 07:46:00,
2013-07-08 03:51:00,66.2,32.2,29.71,SE,142,0.0,0.0,28,0.00,,---,0.00,VWS V13.01,2013-07-08 07:51:00,
2013-07-08 03:57:00,66.0,31.1,29.71,SE,143,0.0,0.0,27,0.00,,---,0.00,VWS V13.01,2013-07-08 07:57:00,
2013-07-08 04:02:00,65.8,30.0,29.71,ESE,103,0.0,0.0,26,0.00,,---,0.00,VWS V13.01,2013-07-08 08:02:00,
2013-07-08 04:07:00,66.0,30.2,29.71,SE,127,0.0,0.0,26,0.00,,---,0.00,VWS V13.01,2013-07-08 08:07:00,
2013-07-08 04:13:00,65.8,29.1,29.71,SE,144,0.0,0.0,25,0.00,,---,0.00,VWS V13.01,2013-07-08 08:13:00,
2013-07-08 04:19:00,65.8,30.0,29.71,SSE,162,0.0,0.0,26,0.00,,---,0.00,VWS V13.01,2013-07-08 08:19:00,
2013-07-08 04:24:00,65.7,29.9,29.71,SE,131,0.0,0.0,26,0.00,,---,0.00,VWS V13.01,2013-07-08 08:24:00,
2013-07-08 04:29:00,65.7,28.9,29.71,SSE,149,0.0,0.0,25,0.00,,---,0.00,VWS V13.01,2013-07-08 08:29:00,
2013-07-08 04:35:00,65.5,29.7,29.71,SSE,161,0.0,0.0,26,0.00,,---,0.00,VWS V13.01,2013-07-08 08:35:00,
2013-07-08 04:41:00,65.3,28.6,29.71,SSE,150,0.0,0.0,25,0.00,,---,0.00,VWS V13.01,2013-07-08 08:41:00,
2013-07-08 04:47:00,65.3,28.6,29.71,SW,226,0.0,0.0,25,0.00,,---,0.00,VWS V13.01,2013-07-08 08:47:00,
2013-07-08 04:52:00,64.9,28.3,29.71,SE,131,0.0,0.0,25,0.00,,---,0.00,VWS V13.01,2013-07-08 08:52:00,
2013-07-08 04:58:00,64.9,28.3,29.71,SE,127,0.0,0.0,25,0.00,,---,0.00,VWS V13.01,2013-07-08 08:58:00,
2013-07-08 05:04:00,64.8,28.1,29.71,SE,129,0.0,0.0,25,0.00,,---,0.00,VWS V13.01,2013-07-08 09:04:00,
2013-07-08 05:09:00,64.4,26.9,29.71,South,182,4.0,5.4,24,0.00,,---,0.00,VWS V13.01,2013-07-08 09:09:00,
2013-07-08 05:14:00,64.4,26.9,29.71,SE,125,5.4,7.2,24,0.00,,---,0.00,VWS V13.01,2013-07-08 09:14:00,
2013-07-08 05:20:00,64.4,26.9,29.71,ESE,119,0.0,0.0,24,0.00,,---,0.00,VWS V13.01,2013-07-08 09:20:00,
2013-07-08 05:26:00,64.2,27.7,29.71,ESE,118,5.4,7.2,25,0.00,,---,0.00,VWS V13.01,2013-07-08 09:26:00,
2013-07-08 05:31:00,63.9,27.4,29.71,SE,139,0.0,0.0,25,0.00,,---,0.00,VWS V13.01,2013-07-08 09:31:00,
2013-07-08 05:37:00,63.9,27.4,29.71,South,174,0.0,0.0,25,0.00,,---,0.00,VWS V13.01,2013-07-08 09:37:00,
2013-07-08 05:43:00,63.7,27.2,29.71,SSE,153,0.0,0.0,25,0.00,,---,0.00,VWS V13.01,2013-07-08 09:43:00,
2013-07-08 05:49:00,63.7,28.2,29.71,SSE,153,0.0,0.0,26,0.00,,---,0.00,VWS V13.01,2013-07-08 09:49:00,
2013-07-08 05:55:00,63.9,28.3,29.71,SSE,165,0.0,0.0,26,0.00,,---,0.00,VWS V13.01,2013-07-08 09:55:00,
2013-07-08 06:01:00,64.2,28.6,29.71,SSE,164,0.0,0.0,26,0.00,,---,0.00,VWS V13.01,2013-07-08 10:01:00,
2013-07-08 06:07:00,64.4,27.8,29.71,SSE,164,0.0,0.0,25,0.00,,---,0.00,VWS V13.01,2013-07-08 10:07:00,
2013-07-08 06:11:00,64.2,27.7,29.71,SSE,164,0.0,0.0,25,0.00,,---,0.00,VWS V13.01,2013-07-08 10:11:00,
2013-07-08 06:17:00,63.7,25.2,29.74,ESE,103,3.4,4.5,23,0.00,,---,0.00,VWS V13.01,2013-07-08 10:17:00,
2013-07-08 06:23:00,63.9,25.4,29.74,SE,128,0.0,0.0,23,0.00,,---,0.00,VWS V13.01,2013-07-08 10:23:00,
2013-07-08 06:28:00,63.9,25.4,29.74,SE,128,0.0,0.0,23,0.00,,---,0.00,VWS V13.01,2013-07-08 10:28:00,
2013-07-08 06:34:00,63.9,25.4,29.74,SE,128,0.0,0.0,23,0.00,,---,0.00,VWS V13.01,2013-07-08 10:34:00,
2013-07-08 06:40:00,63.7,25.2,29.74,SE,128,0.0,0.0,23,0.00,,---,0.00,VWS V13.01,2013-07-08 10:40:00,
2013-07-08 06:46:00,63.9,25.4,29.74,SE,128,0.0,0.0,23,0.00,,---,0.00,VWS V13.01,2013-07-08 10:46:00,
2013-07-08 06:52:00,64.0,26.5,29.74,SE,128,0.0,0.0,24,0.00,,---,0.00,VWS V13.01,2013-07-08 10:52:00,
2013-07-08 06:58:00,65.3,26.6,29.74,SSE,155,0.0,0.0,23,0.00,,---,0.00,VWS V13.01,2013-07-08 10:58:00,
2013-07-08 07:04:00,66.7,24.4,29.74,ESE,112,0.0,0.0,20,0.00,,---,0.00,VWS V13.01,2013-07-08 11:04:00,
2013-07-08 07:09:00,67.3,21.0,29.74,ESE,108,0.0,0.0,17,0.00,,---,0.00,VWS V13.01,2013-07-08 11:09:00,
2013-07-08 07:15:00,66.6,20.4,29.74,SE,131,0.0,0.0,17,0.00,,---,0.00,VWS V13.01,2013-07-08 11:15:00,
2013-07-08 07:20:00,66.2,20.1,29.74,ESE,106,0.0,0.0,17,0.00,,---,0.00,VWS V13.01,2013-07-08 11:20:00,
2013-07-08 07:25:00,66.0,23.8,29.74,ESE,106,0.0,0.0,20,0.00,,---,0.00,VWS V13.01,2013-07-08 11:25:00,
2013-07-08 07:30:00,66.0,23.8,29.74,East,98,0.0,0.0,20,0.00,,---,0.00,VWS V13.01,2013-07-08 11:30:00,
2013-07-08 07:36:00,67.1,20.9,29.74,SE,127,0.0,0.0,17,0.00,,---,0.00,VWS V13.01,2013-07-08 11:36:00,
2013-07-08 07:42:00,67.1,20.9,29.74,ESE,117,3.4,4.5,17,0.00,,---,0.00,VWS V13.01,2013-07-08 11:42:00,
2013-07-08 07:48:00,68.4,21.9,29.74,ESE,119,0.0,0.0,17,0.00,,---,0.00,VWS V13.01,2013-07-08 11:48:00,
2013-07-08 07:53:00,69.3,22.6,29.74,East,100,4.0,5.4,17,0.00,,---,0.00,VWS V13.01,2013-07-08 11:53:00,
2013-07-08 07:58:00,70.2,23.4,29.74,ESE,102,0.0,0.0,17,0.00,,---,0.00,VWS V13.01,2013-07-08 11:58:00,
2013-07-08 08:04:00,70.2,23.4,29.74,East,100,0.0,0.0,17,0.00,,---,0.00,VWS V13.01,2013-07-08 12:04:00,
2013-07-08 08:09:00,71.2,24.2,29.74,ESE,115,0.0,0.0,17,0.00,,---,0.00,VWS V13.01,2013-07-08 12:09:00,
2013-07-08 08:15:00,72.3,23.6,29.74,ESE,104,3.4,4.5,16,0.00,,---,0.00,VWS V13.01,2013-07-08 12:15:00,
2013-07-08 08:21:00,73.0,24.2,29.74,SE,136,6.0,8.1,16,0.00,,---,0.00,VWS V13.01,2013-07-08 12:21:00,
2013-07-08 08:26:00,71.2,24.2,29.74,East,101,8.1,10.7,17,0.00,,---,0.00,VWS V13.01,2013-07-08 12:26:00,
2013-07-08 08:32:00,70.3,23.5,29.74,SE,136,0.0,0.0,17,0.00,,---,0.00,VWS V13.01,2013-07-08 12:32:00,
2013-07-08 08:38:00,69.4,22.8,29.74,East,98,3.4,4.5,17,0.00,,---,0.00,VWS V13.01,2013-07-08 12:38:00,
2013-07-08 08:44:00,69.3,22.6,29.74,ESE,105,0.0,0.0,17,0.00,,---,0.00,VWS V13.01,2013-07-08 12:44:00,
2013-07-08 08:49:00,69.4,22.8,29.74,ESE,109,0.0,0.0,17,0.00,,---,0.00,VWS V13.01,2013-07-08 12:49:00,
2013-07-08 08:56:00,69.3,22.6,29.74,SSE,160,4.7,6.3,17,0.00,,---,0.00,VWS V13.01,2013-07-08 12:56:00,
2013-07-08 09:02:00,69.8,23.1,29.74,SE,124,0.0,0.0,17,0.00,,---,0.00,VWS V13.01,2013-07-08 13:02:00,
2013-07-08 09:07:00,70.2,23.4,29.74,SE,134,0.0,0.0,17,0.00,,---,0.00,VWS V13.01,2013-07-08 13:07:00,
2013-07-08 09:12:00,70.9,23.9,29.74,SE,142,0.0,0.0,17,0.00,,---,0.00,VWS V13.01,2013-07-08 13:12:00,
2013-07-08 09:17:00,76.8,25.7,29.74,SSE,150,0.0,0.0,15,0.00,,---,0.00,VWS V13.01,2013-07-08 13:17:00,
2013-07-08 09:24:00,78.1,26.7,29.74,SSE,160,4.7,6.3,15,0.00,,---,0.00,VWS V13.01,2013-07-08 13:24:00,
2013-07-08 09:30:00,79.0,27.4,29.74,ESE,105,0.0,0.0,15,0.00,,---,0.00,VWS V13.01,2013-07-08 13:30:00,
2013-07-08 09:36:00,79.5,27.9,29.74,SSE,165,3.4,4.5,15,0.00,,---,0.00,VWS V13.01,2013-07-08 13:36:00,
2013-07-08 09:42:00,78.1,26.7,29.74,SSE,149,0.0,0.0,15,0.00,,---,0.00,VWS V13.01,2013-07-08 13:42:00,
2013-07-08 09:48:00,80.2,28.4,29.74,ESE,117,4.0,5.4,15,0.00,,---,0.00,VWS V13.01,2013-07-08 13:48:00,
2013-07-08 09:54:00,78.6,27.1,29.74,SE,131,5.4,7.2,15,0.00,,---,0.00,VWS V13.01,2013-07-08 13:54:00,
2013-07-08 09:59:00,80.4,28.6,29.74,ESE,106,0.0,0.0,15,0.00,,---,0.00,VWS V13.01,2013-07-08 13:59:00,
2013-07-08 10:05:00,81.0,27.3,29.77,ESE,118,0.0,0.0,14,0.00,,---,0.00,VWS V13.01,2013-07-08 14:05:00,
2013-07-08 10:10:00,81.3,27.6,29.77,South,174,0.0,0.0,14,0.00,,---,0.00,VWS V13.01,2013-07-08 14:10:00,
2013-07-08 10:15:00,80.2,23.1,29.77,East,97,3.4,4.5,12,0.00,,---,0.00,VWS V13.01,2013-07-08 14:15:00,
2013-07-08 10:21:00,82.0,28.2,29.74,ESE,113,4.0,5.4,14,0.00,,---,0.00,VWS V13.01,2013-07-08 14:21:00,
2013-07-08 10:26:00,80.8,27.2,29.74,East,94,0.0,0.0,14,0.00,,---,0.00,VWS V13.01,2013-07-08 14:26:00,
2013-07-08 10:32:00,81.3,27.6,29.74,SE,142,0.0,0.0,14,0.00,,---,0.00,VWS V13.01,2013-07-08 14:32:00,
2013-07-08 10:37:00,82.6,28.6,29.74,East,98,6.0,8.1,14,0.00,,---,0.00,VWS V13.01,2013-07-08 14:37:00,
2013-07-08 10:42:00,83.1,29.0,29.74,SE,145,4.7,6.3,14,0.00,,---,0.00,VWS V13.01,2013-07-08 14:42:00,
2013-07-08 10:47:00,81.0,27.3,29.74,East,87,7.4,9.8,14,0.00,,---,0.00,VWS V13.01,2013-07-08 14:47:00,
2013-07-08 10:53:00,82.2,28.3,29.74,SE,138,3.4,4.5,14,0.00,,---,0.00,VWS V13.01,2013-07-08 14:53:00,
2013-07-08 11:00:00,83.8,29.6,29.74,ESE,105,3.4,4.5,14,0.00,,---,0.00,VWS V13.01,2013-07-08 15:00:00,
2013-07-08 11:05:00,83.1,29.0,29.74,SSE,152,6.0,8.1,14,0.00,,---,0.00,VWS V13.01,2013-07-08 15:05:00,
2013-07-08 11:10:00,84.0,29.8,29.74,SSE,155,3.4,4.5,14,0.00,,---,0.00,VWS V13.01,2013-07-08 15:10:00,
2013-07-08 11:16:00,84.2,28.1,29.77,ESE,110,4.0,5.4,13,0.00,,---,0.00,VWS V13.01,2013-07-08 15:16:00,
2013-07-08 11:21:00,83.1,29.0,29.77,East,101,4.7,6.3,14,0.00,,---,0.00,VWS V13.01,2013-07-08 15:21:00,
2013-07-08 11:26:00,85.1,28.8,29.77,East,99,0.0,0.0,13,0.00,,---,0.00,VWS V13.01,2013-07-08 15:26:00,
2013-07-08 11:32:00,87.4,30.6,29.77,ESE,121,0.0,0.0,13,0.00,,---,0.00,VWS V13.01,2013-07-08 15:32:00,
2013-07-08 11:37:00,87.8,30.9,29.77,SE,137,0.0,0.0,13,0.00,,---,0.00,VWS V13.01,2013-07-08 15:37:00,
2013-07-08 11:43:00,87.1,30.3,29.77,East,98,3.4,4.5,13,0.00,,---,0.00,VWS V13.01,2013-07-08 15:43:00,
2013-07-08 11:48:00,85.6,29.2,29.77,ESE,122,0.0,0.0,13,0.00,,---,0.00,VWS V13.01,2013-07-08 15:48:00,
2013-07-08 11:54:00,86.0,29.5,29.77,ESE,106,4.0,5.4,13,0.00,,---,0.00,VWS V13.01,2013-07-08 15:54:00,
2013-07-08 12:00:00,83.8,29.6,29.77,East,88,4.0,5.4,14,0.00,,---,0.00,VWS V13.01,2013-07-08 16:00:00,
2013-07-08 12:05:00,84.7,28.5,29.77,ESE,109,3.4,4.5,13,0.00,,---,0.00,VWS V13.01,2013-07-08 16:05:00,
2013-07-08 12:11:00,84.4,28.2,29.77,SE,141,0.0,0.0,13,0.00,,---,0.00,VWS V13.01,2013-07-08 16:11:00,
2013-07-08 12:18:00,84.9,28.6,29.77,South,169,3.4,4.5,13,0.00,,---,0.00,VWS V13.01,2013-07-08 16:18:00,
2013-07-08 12:23:00,84.6,28.4,29.77,ESE,111,0.0,0.0,13,0.00,,---,0.00,VWS V13.01,2013-07-08 16:23:00,
2013-07-08 12:28:00,84.7,28.5,29.77,East,91,0.0,0.0,13,0.00,,---,0.00,VWS V13.01,2013-07-08 16:28:00,
2013-07-08 12:34:00,84.9,28.6,29.77,East,101,0.0,0.0,13,0.00,,---,0.00,VWS V13.01,2013-07-08 16:34:00,
2013-07-08 12:39:00,85.6,29.2,29.77,ESE,102,0.0,0.0,13,0.00,,---,0.00,VWS V13.01,2013-07-08 16:39:00,
2013-07-08 12:45:00,84.6,28.4,29.77,East,98,0.0,0.0,13,0.00,,---,0.00,VWS V13.01,2013-07-08 16:45:00,
2013-07-08 12:50:00,82.9,28.9,29.77,East,87,0.0,0.0,14,0.00,,---,0.00,VWS V13.01,2013-07-08 16:50:00,
2013-07-08 12:56:00,82.0,28.2,29.77,East,87,0.0,0.0,14,0.00,,---,0.00,VWS V13.01,2013-07-08 16:56:00,
2013-07-08 13:01:00,81.5,27.8,29.77,SE,128,0.0,0.0,14,0.00,,---,0.00,VWS V13.01,2013-07-08 17:01:00,
2013-07-08 13:07:00,81.3,27.6,29.77,SE,139,0.0,0.0,14,0.00,,---,0.00,VWS V13.01,2013-07-08 17:07:00,
2013-07-08 13:12:00,80.6,27.0,29.77,SE,136,0.0,0.0,14,0.00,,---,0.00,VWS V13.01,2013-07-08 17:12:00,
2013-07-08 13:18:00,81.0,27.3,29.77,ENE,74,0.0,0.0,14,0.00,,---,0.00,VWS V13.01,2013-07-08 17:18:00,
2013-07-08 13:23:00,81.5,27.8,29.77,SSE,156,0.0,0.0,14,0.00,,---,0.00,VWS V13.01,2013-07-08 17:23:00,
2013-07-08 13:28:00,81.3,27.6,29.77,ESE,108,0.0,0.0,14,0.00,,---,0.00,VWS V13.01,2013-07-08 17:28:00,
2013-07-08 13:33:00,80.4,23.2,29.77,SE,128,0.0,0.0,12,0.00,,---,0.00,VWS V13.01,2013-07-08 17:33:00,
2013-07-08 13:39:00,80.4,23.2,29.77,ESE,118,0.0,0.0,12,0.00,,---,0.00,VWS V13.01,2013-07-08 17:39:00,
2013-07-08 13:44:00,80.4,28.6,29.77,NE,56,0.0,0.0,15,0.00,,---,0.00,VWS V13.01,2013-07-08 17:44:00,
2013-07-08 13:50:00,80.8,27.2,29.77,SE,133,0.0,0.0,14,0.00,,---,0.00,VWS V13.01,2013-07-08 17:50:00,
2013-07-08 13:56:00,80.6,27.0,29.77,SE,139,0.0,0.0,14,0.00,,---,0.00,VWS V13.01,2013-07-08 17:56:00,
2013-07-08 14:02:00,80.2,28.4,29.77,SE,133,0.0,0.0,15,0.00,,---,0.00,VWS V13.01,2013-07-08 18:02:00,
2013-07-08 14:07:00,80.6,27.0,29.77,SE,142,0.0,0.0,14,0.00,,---,0.00,VWS V13.01,2013-07-08 18:07:00,
2013-07-08 14:14:00,80.8,27.2,29.77,SE,134,0.0,0.0,14,0.00,,---,0.00,VWS V13.01,2013-07-08 18:14:00,
2013-07-08 14:19:00,81.1,27.5,29.77,SE,131,5.4,7.2,14,0.00,,---,0.00,VWS V13.01,2013-07-08 18:19:00,
2013-07-08 14:25:00,82.9,28.9,29.77,ESE,115,0.0,0.0,14,0.00,,---,0.00,VWS V13.01,2013-07-08 18:25:00,
2013-07-08 14:30:00,86.7,30.0,29.77,East,90,0.0,0.0,13,0.00,,---,0.00,VWS V13.01,2013-07-08 18:30:00,
2013-07-08 14:35:00,86.0,29.5,29.77,SE,131,3.4,4.5,13,0.00,,---,0.00,VWS V13.01,2013-07-08 18:35:00,
2013-07-08 14:41:00,90.3,30.9,29.77,East,95,0.0,0.0,12,0.00,,---,0.00,VWS V13.01,2013-07-08 18:41:00,
2013-07-08 14:46:00,89.8,30.5,29.77,NNE,32,0.0,0.0,12,0.00,,---,0.00,VWS V13.01,2013-07-08 18:46:00,
2013-07-08 14:52:00,84.4,28.2,29.77,SSW,198,6.0,8.1,13,0.00,,---,0.00,VWS V13.01,2013-07-08 18:52:00,
2013-07-08 14:58:00,86.5,29.9,29.77,SE,142,0.0,0.0,13,0.00,,---,0.00,VWS V13.01,2013-07-08 18:58:00,
2013-07-08 15:04:00,81.0,27.3,29.77,ESE,111,4.7,6.3,14,0.00,,---,0.00,VWS V13.01,2013-07-08 19:04:00,
2013-07-08 15:10:00,85.1,28.8,29.77,East,93,4.7,6.3,13,0.00,,---,0.00,VWS V13.01,2013-07-08 19:10:00,
2013-07-08 15:16:00,86.9,30.2,29.77,SE,124,0.0,0.0,13,0.00,,---,0.00,VWS V13.01,2013-07-08 19:16:00,
2013-07-08 15:22:00,88.5,31.5,29.77,ESE,108,0.0,0.0,13,0.00,,---,0.00,VWS V13.01,2013-07-08 19:22:00,
2013-07-08 15:28:00,85.5,29.1,29.77,SE,144,0.0,0.0,13,0.00,,---,0.00,VWS V13.01,2013-07-08 19:28:00,
2013-07-08 15:34:00,84.4,28.2,29.74,SE,145,0.0,0.0,13,0.00,,---,0.00,VWS V13.01,2013-07-08 19:34:00,
2013-07-08 15:40:00,87.6,30.8,29.74,SE,124,4.7,6.3,13,0.00,,---,0.00,VWS V13.01,2013-07-08 19:40:00,
2013-07-08 15:47:00,87.6,30.8,29.74,SE,135,0.0,0.0,13,0.00,,---,0.00,VWS V13.01,2013-07-08 19:47:00,
2013-07-08 15:52:00,87.6,30.8,29.74,East,95,0.0,0.0,13,0.00,,---,0.00,VWS V13.01,2013-07-08 19:52:00,
2013-07-08 15:58:00,87.4,30.6,29.74,SE,132,0.0,0.0,13,0.00,,---,0.00,VWS V13.01,2013-07-08 19:58:00,
2013-07-08 16:04:00,84.2,28.1,29.74,SSW,205,4.7,6.3,13,0.00,,---,0.00,VWS V13.01,2013-07-08 20:04:00,
2013-07-08 16:09:00,84.6,28.4,29.74,South,187,4.0,5.4,13,0.00,,---,0.00,VWS V13.01,2013-07-08 20:09:00,
2013-07-08 16:15:00,89.2,32.0,29.74,SE,131,0.0,0.0,13,0.00,,---,0.00,VWS V13.01,2013-07-08 20:15:00,
2013-07-08 16:20:00,91.2,31.6,29.74,ESE,110,4.0,5.4,12,0.00,,---,0.00,VWS V13.01,2013-07-08 20:20:00,
2013-07-08 16:26:00,90.1,30.7,29.74,SE,137,0.0,0.0,12,0.00,,---,0.00,VWS V13.01,2013-07-08 20:26:00,
2013-07-08 16:31:00,88.9,31.7,29.74,SE,133,0.0,0.0,13,0.00,,---,0.00,VWS V13.01,2013-07-08 20:31:00,
2013-07-08 16:37:00,89.8,30.5,29.74,East,94,0.0,0.0,12,0.00,,---,0.00,VWS V13.01,2013-07-08 20:37:00,
2013-07-08 16:45:00,84.7,28.5,29.74,SSE,162,8.1,10.7,13,0.00,,---,0.00,VWS V13.01,2013-07-08 20:45:00,
2013-07-08 16:51:00,88.5,31.5,29.74,SSE,152,0.0,0.0,13,0.00,,---,0.00,VWS V13.01,2013-07-08 20:51:00,
2013-07-08 16:56:00,88.0,31.0,29.74,SE,132,0.0,0.0,13,0.00,,---,0.00,VWS V13.01,2013-07-08 20:56:00,
2013-07-08 17:01:00,83.8,29.6,29.74,SSE,161,3.4,4.5,14,0.00,,---,0.00,VWS V13.01,2013-07-08 21:01:00,
2013-07-08 17:06:00,84.0,29.8,29.74,South,185,0.0,0.0,14,0.00,,---,0.00,VWS V13.01,2013-07-08 21:06:00,
2013-07-08 17:11:00,87.1,30.3,29.74,SSE,156,0.0,0.0,13,0.00,,---,0.00,VWS V13.01,2013-07-08 21:11:00,
2013-07-08 17:17:00,83.7,29.5,29.74,SW,226,6.0,8.1,14,0.00,,---,0.00,VWS V13.01,2013-07-08 21:17:00,
2013-07-08 17:22:00,87.1,30.3,29.74,SSW,201,0.0,0.0,13,0.00,,---,0.00,VWS V13.01,2013-07-08 21:22:00,
2013-07-08 17:27:00,81.9,28.0,29.74,SSW,209,4.0,5.4,14,0.00,,---,0.00,VWS V13.01,2013-07-08 21:27:00,
2013-07-08 17:32:00,86.4,29.8,29.74,SSE,147,0.0,0.0,13,0.00,,---,0.00,VWS V13.01,2013-07-08 21:32:00,
2013-07-08 17:37:00,87.1,30.3,29.74,SSW,194,0.0,0.0,13,0.00,,---,0.00,VWS V13.01,2013-07-08 21:37:00,
2013-07-08 17:43:00,85.5,29.1,29.74,SSE,159,0.0,0.0,13,0.00,,---,0.00,VWS V13.01,2013-07-08 21:43:00,
2013-07-08 17:48:00,85.3,28.9,29.74,SSE,149,0.0,0.0,13,0.00,,---,0.00,VWS V13.01,2013-07-08 21:48:00,
2013-07-08 17:54:00,83.8,29.6,29.74,ESE,110,0.0,0.0,14,0.00,,---,0.00,VWS V13.01,2013-07-08 21:54:00,
2013-07-08 17:59:00,82.2,28.3,29.74,ESE,112,0.0,0.0,14,0.00,,---,0.00,VWS V13.01,2013-07-08 21:59:00,
2013-07-08 18:06:00,81.0,27.3,29.74,ESE,115,0.0,0.0,14,0.00,,---,0.00,VWS V13.01,2013-07-08 22:06:00,
2013-07-08 18:11:00,79.9,28.1,29.74,South,171,0.0,0.0,15,0.00,,---,0.00,VWS V13.01,2013-07-08 22:11:00,
2013-07-08 18:17:00,78.4,27.0,29.74,SSE,164,0.0,0.0,15,0.00,,---,0.00,VWS V13.01,2013-07-08 22:17:00,
2013-07-08 18:23:00,78.1,26.7,29.74,SSE,164,0.0,0.0,15,0.00,,---,0.00,VWS V13.01,2013-07-08 22:23:00,
2013-07-08 18:28:00,77.9,26.6,29.74,SSE,161,0.0,0.0,15,0.00,,---,0.00,VWS V13.01,2013-07-08 22:28:00,
2013-07-08 18:33:00,77.5,26.3,29.74,SSE,160,0.0,0.0,15,0.00,,---,0.00,VWS V13.01,2013-07-08 22:33:00,
2013-07-08 18:40:00,77.9,26.6,29.74,SSE,160,0.0,0.0,15,0.00,,---,0.00,VWS V13.01,2013-07-08 22:40:00,
2013-07-08 18:46:00,79.5,27.9,29.74,South,188,4.0,5.4,15,0.00,,---,0.00,VWS V13.01,2013-07-08 22:46:00,
2013-07-08 18:52:00,79.7,28.0,29.74,SSE,164,0.0,0.0,15,0.00,,---,0.00,VWS V13.01,2013-07-08 22:52:00,
2013-07-08 18:58:00,79.0,27.4,29.74,South,175,0.0,0.0,15,0.00,,---,0.00,VWS V13.01,2013-07-08 22:58:00,
2013-07-08 19:04:00,79.2,27.6,29.74,SSE,158,0.0,0.0,15,0.00,,---,0.00,VWS V13.01,2013-07-08 23:04:00,
2013-07-08 19:09:00,78.8,27.3,29.74,SSE,156,0.0,0.0,15,0.00,,---,0.00,VWS V13.01,2013-07-08 23:09:00,
2013-07-08 19:17:00,77.4,26.1,29.74,South,186,0.0,0.0,15,0.00,,---,0.00,VWS V13.01,2013-07-08 23:17:00,
2013-07-08 19:22:00,75.9,25.0,29.74,SE,143,4.0,5.4,15,0.00,,---,0.00,VWS V13.01,2013-07-08 23:22:00,
2013-07-08 19:28:00,75.6,24.7,29.74,SE,128,0.0,0.0,15,0.00,,---,0.00,VWS V13.01,2013-07-08 23:28:00,
2013-07-08 19:34:00,74.1,25.1,29.74,SE,130,0.0,0.0,16,0.00,,---,0.00,VWS V13.01,2013-07-08 23:34:00,
2013-07-08 19:40:00,73.2,24.4,29.74,SSE,161,4.0,5.4,16,0.00,,---,0.00,VWS V13.01,2013-07-08 23:40:00,
2013-07-08 19:45:00,72.9,24.1,29.74,East,89,4.7,6.3,16,0.00,,---,0.00,VWS V13.01,2013-07-08 23:45:00,
2013-07-08 19:52:00,72.3,27.8,29.74,SSE,156,0.0,0.0,19,0.00,,---,0.00,VWS V13.01,2013-07-08 23:52:00,
2013-07-08 19:58:00,72.1,27.6,29.74,ESE,121,0.0,0.0,19,0.00,,---,0.00,VWS V13.01,2013-07-08 23:58:00,
2013-07-08 20:03:00,71.8,27.3,29.74,SSE,167,0.0,0.0,19,0.00,,---,0.00,VWS V13.01,2013-07-09 00:03:00,
2013-07-08 20:08:00,71.8,27.3,29.74,SSE,153,0.0,0.0,19,0.00,,---,0.00,VWS V13.01,2013-07-09 00:08:00,
2013-07-08 20:14:00,71.4,27.0,29.74,SSE,162,0.0,0.0,19,0.00,,---,0.00,VWS V13.01,2013-07-09 00:14:00,
2013-07-08 20:19:00,71.2,26.9,29.74,SSE,161,0.0,0.0,19,0.00,,---,0.00,VWS V13.01,2013-07-09 00:19:00,
2013-07-08 20:26:00,71.1,26.8,29.74,SSE,161,0.0,0.0,19,0.00,,---,0.00,VWS V13.01,2013-07-09 00:26:00,
2013-07-08 20:32:00,71.1,30.3,29.77,SE,144,0.0,0.0,22,0.00,,---,0.00,VWS V13.01,2013-07-09 00:32:00,
2013-07-08 20:38:00,70.9,30.2,29.77,SE,144,0.0,0.0,22,0.00,,---,0.00,VWS V13.01,2013-07-09 00:38:00,
2013-07-08 20:47:00,70.9,30.2,29.77,SE,144,0.0,0.0,22,0.00,,---,0.00,VWS V13.01,2013-07-09 00:47:00,
2013-07-08 20:52:00,70.7,30.0,29.77,SE,144,0.0,0.0,22,0.00,,---,0.00,VWS V13.01,2013-07-09 00:52:00,
2013-07-08 20:58:00,70.5,29.9,29.77,SE,144,0.0,0.0,22,0.00,,---,0.00,VWS V13.01,2013-07-09 00:58:00,
2013-07-08 21:04:00,70.7,30.0,29.77,SSW,198,0.0,0.0,22,0.00,,---,0.00,VWS V13.01,2013-07-09 01:04:00,
2013-07-08 21:12:00,70.3,29.7,29.77,SE,146,0.0,0.0,22,0.00,,---,0.00,VWS V13.01,2013-07-09 01:12:00,
2013-07-08 21:18:00,70.0,29.4,29.77,SE,146,0.0,0.0,22,0.00,,---,0.00,VWS V13.01,2013-07-09 01:18:00,
2013-07-08 21:24:00,70.0,29.4,29.77,SE,146,0.0,0.0,22,0.00,,---,0.00,VWS V13.01,2013-07-09 01:24:00,
2013-07-08 21:30:00,69.8,29.3,29.77,SE,146,0.0,0.0,22,0.00,,---,0.00,VWS V13.01,2013-07-09 01:30:00,
2013-07-08 21:36:00,69.6,29.1,29.77,SE,146,0.0,0.0,22,0.00,,---,0.00,VWS V13.01,2013-07-09 01:36:00,
2013-07-08 21:42:00,69.4,29.0,29.77,SE,146,0.0,0.0,22,0.00,,---,0.00,VWS V13.01,2013-07-09 01:42:00,
2013-07-08 21:47:00,69.3,28.8,29.77,SE,146,0.0,0.0,22,0.00,,---,0.00,VWS V13.01,2013-07-09 01:47:00,
2013-07-08 21:52:00,69.1,28.7,29.77,SE,146,0.0,0.0,22,0.00,,---,0.00,VWS V13.01,2013-07-09 01:52:00,
2013-07-08 21:59:00,69.1,29.8,29.77,SE,146,0.0,0.0,23,0.00,,---,0.00,VWS V13.01,2013-07-09 01:59:00,
2013-07-08 22:06:00,68.7,29.5,29.77,SE,146,0.0,0.0,23,0.00,,---,0.00,VWS V13.01,2013-07-09 02:06:00,
2013-07-08 22:12:00,68.5,29.3,29.77,SE,146,0.0,0.0,23,0.00,,---,0.00,VWS V13.01,2013-07-09 02:12:00,
2013-07-08 22:19:00,68.5,29.3,29.77,SE,146,0.0,0.0,23,0.00,,---,0.00,VWS V13.01,2013-07-09 02:19:00,
2013-07-08 22:24:00,68.5,29.3,29.77,SE,146,0.0,0.0,23,0.00,,---,0.00,VWS V13.01,2013-07-09 02:24:00,
2013-07-08 22:30:00,68.5,29.3,29.77,SE,146,0.0,0.0,23,0.00,,---,0.00,VWS V13.01,2013-07-09 02:30:00,
2013-07-08 22:36:00,68.4,29.1,29.77,SE,146,0.0,0.0,23,0.00,,---,0.00,VWS V13.01,2013-07-09 02:36:00,
2013-07-08 22:41:00,68.4,29.1,29.77,SE,146,0.0,0.0,23,0.00,,---,0.00,VWS V13.01,2013-07-09 02:41:00,
2013-07-08 22:48:00,68.2,29.0,29.77,SE,146,0.0,0.0,23,0.00,,---,0.00,VWS V13.01,2013-07-09 02:48:00,
2013-07-08 22:54:00,68.2,29.0,29.77,SE,146,0.0,0.0,23,0.00,,---,0.00,VWS V13.01,2013-07-09 02:54:00,
2013-07-08 22:59:00,68.2,29.0,29.77,SE,146,0.0,0.0,23,0.00,,---,0.00,VWS V13.01,2013-07-09 02:59:00,
2013-07-08 23:05:00,68.0,28.9,29.77,SE,146,0.0,0.0,23,0.00,,---,0.00,VWS V13.01,2013-07-09 03:05:00,
2013-07-08 23:12:00,68.0,28.9,29.77,SE,146,0.0,0.0,23,0.00,,---,0.00,VWS V13.01,2013-07-09 03:12:00,
2013-07-08 23:18:00,67.8,28.7,29.77,SE,146,0.0,0.0,23,0.00,,---,0.00,VWS V13.01,2013-07-09 03:18:00,
2013-07-08 23:24:00,67.6,28.5,29.77,SE,146,0.0,0.0,23,0.00,,---,0.00,VWS V13.01,2013-07-09 03:24:00,
2013-07-08 23:32:00,67.3,29.3,29.77,SE,146,0.0,0.0,24,0.00,,---,0.00,VWS V13.01,2013-07-09 03:32:00,
2013-07-08 23:37:00,67.1,29.1,29.77,SE,146,0.0,0.0,24,0.00,,---,0.00,VWS V13.01,2013-07-09 03:37:00,
2013-07-08 23:44:00,67.1,31.1,29.77,SE,146,0.0,0.0,26,0.00,,---,0.00,VWS V13.01,2013-07-09 03:44:00,
2013-07-08 23:50:00,67.1,30.1,29.77,SE,146,0.0,0.0,25,0.00,,---,0.00,VWS V13.01,2013-07-09 03:50:00,
2013-07-08 23:56:00,67.1,30.1,29.77,SE,146,0.0,0.0,25,0.00,,---,0.00,VWS V13.01,2013-07-09 03:56:00,